Time,TemperatureF,DewpointF,PressureIn,WindDirection,WindDirectionDegrees,WindSpeedMPH,WindSpeedGustMPH,Humidity,HourlyPrecipIn,Conditions,Clouds,dailyrainin,SoftwareType,DateUTC
2013-07-21 00:00:00,65.7,61.4,29.86,ESE,104,6.0,8.4,86,0.00,,SCT120,0.00,VWS V14.01,2013-07-21 05:00:00,
2013-07-21 00:05:00,65.7,61.4,29.86,East,84,3.0,8.4,86,0.00,,SCT120,0.00,VWS V14.01,2013-07-21 05:05:00,
2013-07-21 00:10:00,65.6,61.3,29.85,ESE,103,3.0,6.3,86,0.00,,SCT120,0.00,VWS V14.01,2013-07-21 05:10:00,
2013-07-21 00:15:00,65.5,61.2,29.85,East,88,3.0,7.3,86,0.00,,SCT120,0.00,VWS V14.01,2013-07-21 05:15:00,
2013-07-21 00:20:00,65.5,61.2,29.86,East,96,2.0,6.3,86,0.00,,SCT120,0.00,VWS V14.01,2013-07-21 05:20:00,
2013-07-21 00:25:00,65.5,61.2,29.86,ENE,78,4.0,6.3,86,0.00,,SCT120,0.00,VWS V14.01,2013-07-21 05:25:00,
2013-07-21 00:30:00,65.6,61.3,29.85,East,90,4.0,6.3,86,0.00,,SCT120,0.00,VWS V14.01,2013-07-21 05:30:00,
2013-07-21 00:35:00,65.6,61.0,29.85,East,89,2.0,6.3,85,0.00,,SCT120,0.00,VWS V14.01,2013-07-21 05:35:00,
2013-07-21 00:40:00,65.7,60.7,29.86,ESE,108,3.0,8.4,84,0.00,,SCT120,0.00,VWS V14.01,2013-07-21 05:40:00,
2013-07-21 00:45:00,65.7,60.7,29.85,ESE,115,6.0,7.3,84,0.00,,SCT120,0.00,VWS V14.01,2013-07-21 05:45:00,
2013-07-21 00:55:00,65.8,60.5,29.86,East,90,3.0,6.3,83,0.00,,SCT120,0.00,VWS V14.01,2013-07-21 05:55:00,
2013-07-21 01:00:00,65.7,60.4,29.85,ESE,114,4.0,7.3,83,0.00,,SCT120,0.00,VWS V14.01,2013-07-21 06:00:00,
2013-07-21 01:05:00,65.6,60.3,29.86,ESE,111,3.0,6.3,83,0.00,,SCT120,0.00,VWS V14.01,2013-07-21 06:05:00,
2013-07-21 01:10:00,65.5,60.2,29.85,East,82,4.0,7.3,83,0.00,,SCT120,0.00,VWS V14.01,2013-07-21 06:10:00,
2013-07-21 01:20:00,65.4,60.1,29.85,East,90,3.0,6.3,83,0.00,,SCT120,0.00,VWS V14.01,2013-07-21 06:20:00,
2013-07-21 01:25:00,65.4,60.1,29.85,East,84,1.0,7.3,83,0.00,,CLR,0.00,VWS V14.01,2013-07-21 06:25:00,
2013-07-21 01:35:00,65.7,60.1,29.84,ESE,105,2.0,7.3,82,0.00,,CLR,0.00,VWS V14.01,2013-07-21 06:35:00,
2013-07-21 01:45:00,65.8,59.8,29.84,ESE,109,4.0,7.3,81,0.00,,CLR,0.00,VWS V14.01,2013-07-21 06:45:00,
2013-07-21 01:50:00,65.8,59.8,29.84,ESE,115,3.0,8.4,81,0.00,,CLR,0.00,VWS V14.01,2013-07-21 06:50:00,
2013-07-21 01:55:00,65.9,59.9,29.84,ESE,103,7.0,8.4,81,0.00,,CLR,0.00,VWS V14.01,2013-07-21 06:55:00,
2013-07-21 02:05:00,65.9,59.9,29.84,East,82,4.0,6.3,81,0.00,,CLR,0.00,VWS V14.01,2013-07-21 07:05:00,
2013-07-21 02:10:00,65.9,59.9,29.84,East,100,6.0,7.3,81,0.00,,CLR,0.00,VWS V14.01,2013-07-21 07:10:00,
2013-07-21 02:15:00,66.0,60.0,29.83,East,92,4.0,6.3,81,0.00,,CLR,0.00,VWS V14.01,2013-07-21 07:15:00,
2013-07-21 02:20:00,65.9,59.9,29.83,East,92,6.0,7.3,81,0.00,,CLR,0.00,VWS V14.01,2013-07-21 07:20:00,
2013-07-21 02:25:00,65.9,60.3,29.83,ENE,74,3.0,7.3,82,0.00,,CLR,0.00,VWS V14.01,2013-07-21 07:25:00,
2013-07-21 02:35:00,65.8,60.2,29.83,ENE,77,3.0,9.4,82,0.00,,CLR,0.00,VWS V14.01,2013-07-21 07:35:00,
2013-07-21 02:40:00,65.7,60.1,29.82,ESE,107,6.0,7.3,82,0.00,,CLR,0.00,VWS V14.01,2013-07-21 07:40:00,
2013-07-21 02:45:00,65.7,60.1,29.82,East,98,4.0,8.4,82,0.00,,CLR,0.00,VWS V14.01,2013-07-21 07:45:00,
2013-07-21 02:50:00,65.8,59.8,29.82,East,89,7.0,8.4,81,0.00,,CLR,0.00,VWS V14.01,2013-07-21 07:50:00,
2013-07-21 03:00:00,65.8,59.8,29.83,ENE,71,3.0,8.4,81,0.00,,CLR,0.00,VWS V14.01,2013-07-21 08:00:00,
2013-07-21 03:05:00,65.8,59.8,29.82,ENE,71,4.0,8.4,81,0.00,,CLR,0.00,VWS V14.01,2013-07-21 08:05:00,
2013-07-21 03:15:00,65.8,60.2,29.83,ENE,60,4.0,5.2,82,0.00,,CLR,0.00,VWS V14.01,2013-07-21 08:15:00,
2013-07-21 03:20:00,65.7,60.1,29.83,ENE,60,2.0,4.2,82,0.00,,BKN100,0.00,VWS V14.01,2013-07-21 08:20:00,
2013-07-21 03:25:00,65.6,60.0,29.83,ENE,69,1.0,2.1,82,0.00,,BKN100,0.00,VWS V14.01,2013-07-21 08:25:00,
2013-07-21 03:30:00,65.6,60.0,29.84,East,81,1.0,3.1,82,0.00,,BKN100,0.00,VWS V14.01,2013-07-21 08:30:00,
2013-07-21 03:40:00,65.6,60.3,29.84,East,82,0.0,3.1,83,0.00,,BKN100,0.00,VWS V14.01,2013-07-21 08:40:00,
2013-07-21 03:45:00,65.6,60.3,29.84,East,82,0.0,2.1,83,0.00,,OVC090,0.00,VWS V14.01,2013-07-21 08:45:00,
2013-07-21 03:55:00,65.6,60.3,29.84,East,82,0.0,2.1,83,0.00,,OVC090,0.00,VWS V14.01,2013-07-21 08:55:00,
2013-07-21 04:00:00,65.5,60.2,29.83,East,80,1.0,3.1,83,0.00,,OVC090,0.00,VWS V14.01,2013-07-21 09:00:00,
2013-07-21 04:05:00,65.4,60.1,29.83,East,81,3.0,3.1,83,0.00,,OVC090,0.00,VWS V14.01,2013-07-21 09:05:00,
2013-07-21 04:10:00,65.4,60.5,29.83,East,80,0.0,3.1,84,0.00,,OVC090,0.00,VWS V14.01,2013-07-21 09:10:00,
2013-07-21 04:15:00,65.3,60.7,29.83,East,80,1.0,2.1,85,0.00,,OVC090,0.00,VWS V14.01,2013-07-21 09:15:00,
2013-07-21 04:25:00,64.7,61.1,29.83,NE,53,2.0,4.2,88,0.00,,OVC090,0.00,VWS V14.01,2013-07-21 09:25:00,
2013-07-21 04:30:00,64.5,61.2,29.83,ENE,61,2.0,3.1,89,0.00,,OVC090,0.00,VWS V14.01,2013-07-21 09:30:00,
2013-07-21 04:35:00,64.3,61.0,29.82,ENE,75,3.0,4.2,89,0.00,,OVC090,0.00,VWS V14.01,2013-07-21 09:35:00,
2013-07-21 04:40:00,64.2,60.9,29.83,East,82,0.0,3.1,89,0.00,,OVC090,0.00,VWS V14.01,2013-07-21 09:40:00,
2013-07-21 04:45:00,64.1,60.8,29.82,East,85,2.0,2.1,89,0.00,,OVC090,0.00,VWS V14.01,2013-07-21 09:45:00,
2013-07-21 04:50:00,64.0,61.0,29.82,East,96,0.0,3.1,90,0.00,,OVC090,0.00,VWS V14.01,2013-07-21 09:50:00,
2013-07-21 04:55:00,63.9,60.9,29.82,ENE,77,3.0,3.1,90,0.00,,OVC090,0.00,VWS V14.01,2013-07-21 09:55:00,
2013-07-21 05:05:00,63.8,60.8,29.82,NE,51,3.0,4.2,90,0.00,,BKN090,0.00,VWS V14.01,2013-07-21 10:05:00,
2013-07-21 05:10:00,63.6,60.9,29.82,NE,49,2.0,6.3,91,0.00,,BKN090,0.00,VWS V14.01,2013-07-21 10:10:00,
2013-07-21 05:15:00,63.6,60.9,29.82,ENE,67,5.0,7.3,91,0.00,,BKN090,0.00,VWS V14.01,2013-07-21 10:15:00,
2013-07-21 05:20:00,63.5,60.8,29.82,ENE,59,4.0,6.3,91,0.00,,BKN090,0.00,VWS V14.01,2013-07-21 10:20:00,
2013-07-21 05:30:00,63.4,60.7,29.82,East,90,3.0,4.2,91,0.00,,BKN120,0.00,VWS V14.01,2013-07-21 10:30:00,
2013-07-21 05:35:00,63.3,60.6,29.82,East,93,4.0,7.3,91,0.00,,BKN120,0.00,VWS V14.01,2013-07-21 10:35:00,
2013-07-21 05:40:00,63.4,60.7,29.82,ENE,77,1.0,6.3,91,0.00,,BKN120,0.00,VWS V14.01,2013-07-21 10:40:00,
2013-07-21 05:50:00,63.6,60.6,29.82,NE,54,1.0,5.2,90,0.00,,OVC110,0.00,VWS V14.01,2013-07-21 10:50:00,
2013-07-21 05:55:00,63.6,60.6,29.82,ENE,72,1.0,5.2,90,0.00,,OVC110,0.00,VWS V14.01,2013-07-21 10:55:00,
2013-07-21 06:00:00,63.5,60.8,29.82,ENE,71,3.0,9.4,91,0.00,,OVC110,0.00,VWS V14.01,2013-07-21 11:00:00,
2013-07-21 06:05:00,63.4,60.7,29.82,East,86,5.0,7.3,91,0.00,,SCT100,0.00,VWS V14.01,2013-07-21 11:05:00,
2013-07-21 06:10:00,63.2,60.5,29.82,ENE,63,1.0,7.3,91,0.00,,SCT100,0.00,VWS V14.01,2013-07-21 11:10:00,
2013-07-21 06:15:00,63.0,60.6,29.82,ENE,71,3.0,6.3,92,0.00,,SCT100,0.00,VWS V14.01,2013-07-21 11:15:00,
2013-07-21 06:20:00,63.0,60.6,29.82,East,86,4.0,7.3,92,0.00,,SCT100,0.00,VWS V14.01,2013-07-21 11:20:00,
2013-07-21 06:25:00,62.9,60.5,29.83,ENE,57,2.0,6.3,92,0.00,,SCT110,0.00,VWS V14.01,2013-07-21 11:25:00,
2013-07-21 06:30:00,62.9,60.5,29.83,ENE,59,4.0,8.4,92,0.00,,SCT110,0.00,VWS V14.01,2013-07-21 11:30:00,
2013-07-21 06:35:00,62.9,60.5,29.83,East,80,3.0,6.3,92,0.00,,SCT110,0.00,VWS V14.01,2013-07-21 11:35:00,
2013-07-21 06:40:00,62.9,60.5,29.83,ENE,78,4.0,5.2,92,0.00,,SCT110,0.00,VWS V14.01,2013-07-21 11:40:00,
2013-07-21 06:45:00,63.0,61.0,29.83,ENE,78,4.0,7.3,93,0.01,,SCT110,0.01,VWS V14.01,2013-07-21 11:45:00,
2013-07-21 06:50:00,63.0,61.0,29.82,ENE,64,3.0,8.4,93,0.01,,SCT110,0.01,VWS V14.01,2013-07-21 11:50:00,
2013-07-21 07:00:00,63.0,61.0,29.82,ENE,64,4.0,8.4,93,0.01,,SCT110,0.01,VWS V14.01,2013-07-21 12:00:00,
2013-07-21 07:05:00,63.1,61.0,29.82,ENE,67,1.0,8.4,93,0.01,,SCT120,0.01,VWS V14.01,2013-07-21 12:05:00,
2013-07-21 07:10:00,63.2,61.2,29.82,East,88,2.0,5.2,93,0.01,,SCT120,0.01,VWS V14.01,2013-07-21 12:10:00,
2013-07-21 07:15:00,63.3,61.2,29.82,East,87,4.0,5.2,93,0.01,,SCT120,0.01,VWS V14.01,2013-07-21 12:15:00,
2013-07-21 07:20:00,63.5,61.8,29.82,East,92,1.0,4.2,94,0.01,,SCT120,0.01,VWS V14.01,2013-07-21 12:20:00,
2013-07-21 07:25:00,63.6,61.5,29.82,ENE,67,2.0,4.2,93,0.01,,SCT120,0.01,VWS V14.01,2013-07-21 12:25:00,
2013-07-21 07:35:00,63.8,61.7,29.82,ENE,78,2.0,8.4,93,0.01,,SCT120,0.01,VWS V14.01,2013-07-21 12:35:00,
2013-07-21 07:40:00,63.9,61.8,29.82,East,80,2.0,6.3,93,0.01,,SCT120,0.01,VWS V14.01,2013-07-21 12:40:00,
2013-07-21 07:45:00,64.0,61.9,29.82,ESE,103,2.0,4.2,93,0.01,,SCT120,0.01,VWS V14.01,2013-07-21 12:45:00,
2013-07-21 07:50:00,64.1,62.0,29.82,ESE,112,0.0,4.2,93,0.00,,SCT120,0.01,VWS V14.01,2013-07-21 12:50:00,
2013-07-21 07:55:00,64.3,62.2,29.82,ESE,112,2.0,3.1,93,0.00,,SCT120,0.01,VWS V14.01,2013-07-21 12:55:00,
2013-07-21 08:00:00,64.4,62.3,29.82,ESE,109,1.0,4.2,93,0.00,,SCT120,0.01,VWS V14.01,2013-07-21 13:00:00,
2013-07-21 08:05:00,64.6,62.5,29.82,East,98,2.0,6.3,93,0.00,,CLR,0.01,VWS V14.01,2013-07-21 13:05:00,
2013-07-21 08:15:00,65.0,62.6,29.82,East,87,3.0,7.3,92,0.00,,CLR,0.01,VWS V14.01,2013-07-21 13:15:00,
2013-07-21 08:20:00,65.2,62.8,29.82,East,89,3.0,8.4,92,0.00,,CLR,0.01,VWS V14.01,2013-07-21 13:20:00,
2013-07-21 08:25:00,65.4,62.7,29.82,ESE,103,4.0,9.4,91,0.00,,CLR,0.01,VWS V14.01,2013-07-21 13:25:00,
2013-07-21 08:30:00,65.6,62.9,29.82,ENE,66,5.0,8.4,91,0.00,,CLR,0.01,VWS V14.01,2013-07-21 13:30:00,
2013-07-21 08:40:00,66.2,63.2,29.82,East,81,8.0,9.4,90,0.00,,CLR,0.01,VWS V14.01,2013-07-21 13:40:00,
2013-07-21 08:50:00,67.0,63.3,29.82,ENE,75,10.0,10.5,88,0.00,,CLR,0.01,VWS V14.01,2013-07-21 13:50:00,
2013-07-21 08:55:00,67.2,63.5,29.83,ESE,103,9.0,12.6,88,0.00,,CLR,0.01,VWS V14.01,2013-07-21 13:55:00,
2013-07-21 09:05:00,68.2,63.9,29.83,East,94,6.0,12.6,86,0.00,,CLR,0.01,VWS V14.01,2013-07-21 14:05:00,
2013-07-21 09:10:00,68.4,64.1,29.83,ENE,65,5.0,10.5,86,0.00,,CLR,0.01,VWS V14.01,2013-07-21 14:10:00,
2013-07-21 09:20:00,69.1,64.7,29.83,ENE,62,6.0,11.5,86,0.00,,CLR,0.01,VWS V14.01,2013-07-21 14:20:00,
2013-07-21 09:30:00,69.7,65.3,29.83,East,97,8.0,11.5,86,0.00,,CLR,0.01,VWS V14.01,2013-07-21 14:30:00,
2013-07-21 09:35:00,70.0,65.6,29.83,ESE,105,7.0,9.4,86,0.00,,CLR,0.01,VWS V14.01,2013-07-21 14:35:00,
2013-07-21 09:40:00,70.4,65.7,29.83,ESE,118,7.0,8.4,85,0.00,,CLR,0.01,VWS V14.01,2013-07-21 14:40:00,
2013-07-21 09:50:00,70.4,65.7,29.83,East,84,3.0,9.4,85,0.00,,SCT100,0.01,VWS V14.01,2013-07-21 14:50:00,
2013-07-21 09:55:00,70.3,65.9,29.83,ESE,105,4.0,9.4,86,0.00,,SCT100,0.01,VWS V14.01,2013-07-21 14:55:00,
2013-07-21 10:00:00,70.5,65.8,29.82,East,98,3.0,8.4,85,0.00,,SCT100,0.01,VWS V14.01,2013-07-21 15:00:00,
2013-07-21 10:10:00,70.8,66.4,29.82,ENE,74,2.0,8.4,86,0.00,,OVC100,0.01,VWS V14.01,2013-07-21 15:10:00,
2013-07-21 10:15:00,71.1,66.7,29.82,NE,56,3.0,6.3,86,0.00,,OVC100,0.01,VWS V14.01,2013-07-21 15:15:00,
2013-07-21 10:25:00,72.1,67.0,29.82,ESE,110,4.0,8.4,84,0.00,,OVC110,0.01,VWS V14.01,2013-07-21 15:25:00,
2013-07-21 10:30:00,72.4,67.3,29.82,East,101,3.0,8.4,84,0.00,,OVC110,0.01,VWS V14.01,2013-07-21 15:30:00,
2013-07-21 10:40:00,73.4,68.3,29.81,East,94,2.0,7.3,84,0.00,,OVC110,0.01,VWS V14.01,2013-07-21 15:40:00,
2013-07-21 10:45:00,74.0,68.5,29.81,SE,128,7.0,9.4,83,0.00,,BKN110,0.01,VWS V14.01,2013-07-21 15:45:00,
2013-07-21 10:55:00,74.7,68.5,29.81,ESE,107,0.0,7.3,81,0.00,,BKN110,0.01,VWS V14.01,2013-07-21 15:55:00,
2013-07-21 11:00:00,75.1,69.2,29.81,ESE,119,3.0,8.4,82,0.00,,BKN110,0.01,VWS V14.01,2013-07-21 16:00:00,
2013-07-21 11:10:00,75.6,68.3,29.81,SE,127,2.0,12.6,78,0.00,,SCT110,0.01,VWS V14.01,2013-07-21 16:10:00,
2013-07-21 11:15:00,75.8,69.2,29.81,East,100,2.0,10.5,80,0.00,,SCT110,0.01,VWS V14.01,2013-07-21 16:15:00,
2013-07-21 11:20:00,76.1,68.8,29.80,ESE,123,7.0,9.4,78,0.00,,SCT110,0.01,VWS V14.01,2013-07-21 16:20:00,
2013-07-21 11:25:00,76.4,68.7,29.80,SE,137,4.0,10.5,77,0.00,,CLR,0.01,VWS V14.01,2013-07-21 16:25:00,
2013-07-21 11:30:00,76.6,69.2,29.80,ESE,110,4.0,11.5,78,0.00,,CLR,0.01,VWS V14.01,2013-07-21 16:30:00,
2013-07-21 11:35:00,76.7,68.2,29.81,SE,144,5.0,10.5,75,0.00,,CLR,0.01,VWS V14.01,2013-07-21 16:35:00,
2013-07-21 11:40:00,76.7,68.9,29.81,ESE,123,9.0,11.5,77,0.00,,CLR,0.01,VWS V14.01,2013-07-21 16:40:00,
2013-07-21 11:50:00,77.5,69.7,29.80,ENE,61,4.0,8.4,77,0.00,,CLR,0.01,VWS V14.01,2013-07-21 16:50:00,
2013-07-21 12:00:00,77.9,69.3,29.80,ESE,123,7.0,10.5,75,0.00,,CLR,0.01,VWS V14.01,2013-07-21 17:00:00,
2013-07-21 12:05:00,78.1,69.5,29.80,SE,128,5.0,10.5,75,0.00,,CLR,0.01,VWS V14.01,2013-07-21 17:05:00,
2013-07-21 12:10:00,78.4,69.4,29.80,ESE,104,2.0,8.4,74,0.00,,CLR,0.01,VWS V14.01,2013-07-21 17:10:00,
2013-07-21 12:15:00,78.4,69.0,29.80,ESE,105,3.0,10.5,73,0.00,,CLR,0.01,VWS V14.01,2013-07-21 17:15:00,
2013-07-21 12:20:00,78.5,69.9,29.79,ESE,106,3.0,8.4,75,0.00,,CLR,0.01,VWS V14.01,2013-07-21 17:20:00,
2013-07-21 12:25:00,78.4,69.4,29.79,ESE,107,7.0,9.4,74,0.00,,CLR,0.01,VWS V14.01,2013-07-21 17:25:00,
2013-07-21 12:30:00,78.4,69.4,29.79,East,85,4.0,10.5,74,0.00,,CLR,0.01,VWS V14.01,2013-07-21 17:30:00,
2013-07-21 12:35:00,78.5,70.3,29.79,East,88,4.0,10.5,76,0.00,,CLR,0.01,VWS V14.01,2013-07-21 17:35:00,
2013-07-21 12:40:00,78.7,70.5,29.79,East,93,2.0,9.4,76,0.00,,CLR,0.01,VWS V14.01,2013-07-21 17:40:00,
2013-07-21 12:45:00,79.1,70.5,29.78,East,83,5.0,9.4,75,0.00,,CLR,0.01,VWS V14.01,2013-07-21 17:45:00,
2013-07-21 12:50:00,79.0,69.2,29.78,SE,133,8.0,10.5,72,0.00,,CLR,0.01,VWS V14.01,2013-07-21 17:50:00,
2013-07-21 12:55:00,79.0,69.6,29.78,SE,129,9.0,12.6,73,0.00,,CLR,0.01,VWS V14.01,2013-07-21 17:55:00,
2013-07-21 13:00:00,78.9,69.5,29.78,East,86,7.0,10.5,73,0.00,,CLR,0.01,VWS V14.01,2013-07-21 18:00:00,
2013-07-21 13:10:00,79.2,70.2,29.78,SE,134,8.0,12.6,74,0.00,,CLR,0.01,VWS V14.01,2013-07-21 18:10:00,
2013-07-21 13:20:00,79.8,70.8,29.78,East,80,4.0,9.4,74,0.00,,CLR,0.01,VWS V14.01,2013-07-21 18:20:00,
2013-07-21 13:30:00,79.2,71.0,29.77,ESE,109,8.0,11.5,76,0.00,,CLR,0.01,VWS V14.01,2013-07-21 18:30:00,
2013-07-21 13:35:00,79.6,70.2,29.77,SE,144,6.0,12.6,73,0.00,,CLR,0.01,VWS V14.01,2013-07-21 18:35:00,
2013-07-21 13:45:00,79.8,70.8,29.77,ENE,65,6.0,11.5,74,0.00,,CLR,0.01,VWS V14.01,2013-07-21 18:45:00,
2013-07-21 13:50:00,80.0,71.0,29.77,ESE,118,6.0,11.5,74,0.00,,CLR,0.01,VWS V14.01,2013-07-21 18:50:00,
2013-07-21 14:00:00,80.3,70.9,29.76,SE,127,12.0,15.7,73,0.00,,CLR,0.01,VWS V14.01,2013-07-21 19:00:00,
2013-07-21 14:10:00,80.0,70.6,29.76,East,98,8.0,10.5,73,0.00,,SCT034,0.01,VWS V14.01,2013-07-21 19:10:00,
2013-07-21 14:15:00,80.2,69.9,29.76,East,96,11.0,12.6,71,0.00,,SCT034,0.01,VWS V14.01,2013-07-21 19:15:00,
2013-07-21 14:25:00,80.5,71.1,29.75,SE,144,5.0,11.5,73,0.00,,SCT036,0.01,VWS V14.01,2013-07-21 19:25:00,
2013-07-21 14:30:00,80.4,70.1,29.75,ENE,69,5.0,11.5,71,0.00,,SCT036,0.01,VWS V14.01,2013-07-21 19:30:00,
2013-07-21 14:35:00,80.2,70.4,29.75,ENE,78,7.0,9.4,72,0.00,,SCT036,0.01,VWS V14.01,2013-07-21 19:35:00,
2013-07-21 14:40:00,80.0,69.3,29.75,ESE,119,4.0,11.5,70,0.00,,SCT038,0.01,VWS V14.01,2013-07-21 19:40:00,
2013-07-21 14:45:00,80.2,70.4,29.75,ESE,110,6.0,10.5,72,0.00,,SCT038,0.01,VWS V14.01,2013-07-21 19:45:00,
2013-07-21 14:50:00,80.2,69.9,29.75,East,88,8.0,10.5,71,0.00,,SCT038,0.01,VWS V14.01,2013-07-21 19:50:00,
2013-07-21 14:55:00,80.2,69.9,29.75,SE,124,7.0,11.5,71,0.00,,SCT038,0.01,VWS V14.01,2013-07-21 19:55:00,
2013-07-21 15:00:00,80.2,69.9,29.75,ESE,117,2.0,10.5,71,0.00,,SCT049,0.01,VWS V14.01,2013-07-21 20:00:00,
2013-07-21 15:10:00,80.9,69.8,29.74,East,83,8.0,10.5,69,0.00,,SCT049,0.01,VWS V14.01,2013-07-21 20:10:00,
2013-07-21 15:15:00,80.9,70.6,29.74,ESE,115,8.0,12.6,71,0.00,,SCT049,0.01,VWS V14.01,2013-07-21 20:15:00,
2013-07-21 15:20:00,81.1,70.4,29.74,ESE,118,7.0,13.6,70,0.00,,SCT050,0.01,VWS V14.01,2013-07-21 20:20:00,
2013-07-21 15:30:00,81.6,70.4,29.74,East,88,8.0,12.6,69,0.00,,SCT050,0.01,VWS V14.01,2013-07-21 20:30:00,
2013-07-21 15:40:00,80.8,69.7,29.74,East,100,6.0,11.5,69,0.00,,SCT050,0.01,VWS V14.01,2013-07-21 20:40:00,
2013-07-21 15:50:00,80.5,69.0,29.74,ESE,123,4.0,10.5,68,0.00,,SCT045,0.01,VWS V14.01,2013-07-21 20:50:00,
2013-07-21 15:55:00,80.5,69.4,29.74,SE,130,5.0,9.4,69,0.00,,SCT045,0.01,VWS V14.01,2013-07-21 20:55:00,
2013-07-21 16:05:00,81.8,71.1,29.73,East,97,3.0,8.4,70,0.00,,SCT045,0.01,VWS V14.01,2013-07-21 21:05:00,
2013-07-21 16:10:00,82.3,70.7,29.73,ESE,117,7.0,16.8,68,0.00,,SCT045,0.01,VWS V14.01,2013-07-21 21:10:00,
2013-07-21 16:15:00,82.4,69.9,29.73,East,93,4.0,8.4,66,0.00,,SCT045,0.01,VWS V14.01,2013-07-21 21:15:00,
2013-07-21 16:20:00,82.4,71.2,29.73,ESE,113,7.0,8.4,69,0.00,,SCT045,0.01,VWS V14.01,2013-07-21 21:20:00,
2013-07-21 16:25:00,81.9,69.9,29.73,SE,138,3.0,8.4,67,0.00,,BKN075,0.01,VWS V14.01,2013-07-21 21:25:00,
2013-07-21 16:30:00,81.3,69.7,29.73,ENE,76,7.0,9.4,68,0.00,,BKN075,0.01,VWS V14.01,2013-07-21 21:30:00,
2013-07-21 16:35:00,81.0,70.3,29.73,ESE,118,3.0,10.5,70,0.00,,BKN075,0.01,VWS V14.01,2013-07-21 21:35:00,
2013-07-21 16:40:00,81.2,70.9,29.73,East,95,6.0,9.4,71,0.00,,BKN075,0.01,VWS V14.01,2013-07-21 21:40:00,
2013-07-21 16:50:00,81.8,69.8,29.72,SE,134,2.0,9.4,67,0.00,,BKN075,0.01,VWS V14.01,2013-07-21 21:50:00,
2013-07-21 16:55:00,81.3,69.7,29.72,SE,134,1.0,5.2,68,0.00,,BKN075,0.01,VWS V14.01,2013-07-21 21:55:00,
2013-07-21 17:05:00,81.7,71.0,29.72,SSE,153,4.0,8.4,70,0.00,,BKN085,0.01,VWS V14.01,2013-07-21 22:05:00,
2013-07-21 17:10:00,82.0,70.8,29.72,East,97,3.0,12.6,69,0.00,,BKN085,0.01,VWS V14.01,2013-07-21 22:10:00,
2013-07-21 17:15:00,82.3,70.7,29.72,ESE,115,7.0,8.4,68,0.00,,BKN085,0.01,VWS V14.01,2013-07-21 22:15:00,
2013-07-21 17:20:00,82.1,70.5,29.72,ESE,121,3.0,9.4,68,0.00,,BKN085,0.01,VWS V14.01,2013-07-21 22:20:00,
2013-07-21 17:25:00,82.0,70.4,29.72,SE,128,2.0,8.4,68,0.00,,OVC110,0.01,VWS V14.01,2013-07-21 22:25:00,
2013-07-21 17:35:00,81.9,70.7,29.72,East,98,4.0,8.4,69,0.00,,OVC110,0.01,VWS V14.01,2013-07-21 22:35:00,
2013-07-21 17:40:00,82.1,70.5,29.72,ESE,117,4.0,11.5,68,0.00,,BKN070,0.01,VWS V14.01,2013-07-21 22:40:00,
2013-07-21 17:45:00,82.1,70.1,29.72,SE,132,9.0,10.5,67,0.00,,BKN070,0.01,VWS V14.01,2013-07-21 22:45:00,
2013-07-21 17:50:00,82.2,70.2,29.71,SSE,150,3.0,9.4,67,0.00,,BKN070,0.01,VWS V14.01,2013-07-21 22:50:00,
2013-07-21 17:55:00,82.2,69.7,29.71,SE,132,3.0,10.5,66,0.00,,BKN070,0.01,VWS V14.01,2013-07-21 22:55:00,
2013-07-21 18:05:00,82.1,70.5,29.71,ESE,111,3.0,9.4,68,0.00,,BKN085,0.01,VWS V14.01,2013-07-21 23:05:00,
2013-07-21 18:10:00,82.2,71.4,29.71,SE,124,3.0,11.5,70,0.00,,BKN085,0.01,VWS V14.01,2013-07-21 23:10:00,
2013-07-21 18:15:00,82.2,71.4,29.71,SE,146,4.0,11.5,70,0.00,,BKN085,0.01,VWS V14.01,2013-07-21 23:15:00,
2013-07-21 18:25:00,81.1,70.0,29.70,ESE,117,3.0,11.5,69,0.00,,BKN100,0.01,VWS V14.01,2013-07-21 23:25:00,
2013-07-21 18:30:00,81.1,70.4,29.70,ESE,117,7.0,9.4,70,0.00,,BKN100,0.01,VWS V14.01,2013-07-21 23:30:00,
2013-07-21 18:40:00,81.3,70.2,29.69,SE,132,7.0,12.6,69,0.00,,BKN100,0.01,VWS V14.01,2013-07-21 23:40:00,
2013-07-21 18:45:00,81.0,69.4,29.69,SE,130,3.0,11.5,68,0.00,,SCT100,0.01,VWS V14.01,2013-07-21 23:45:00,
2013-07-21 18:55:00,79.8,69.6,29.68,ESE,107,4.0,10.5,71,0.00,,SCT100,0.01,VWS V14.01,2013-07-21 23:55:00,
2013-07-21 19:00:00,79.3,69.5,29.69,SSE,151,5.0,8.4,72,0.00,,SCT100,0.01,VWS V14.01,2013-07-22 00:00:00,
2013-07-21 19:05:00,79.0,70.0,29.68,SE,141,4.0,7.3,74,0.00,,CLR,0.01,VWS V14.01,2013-07-22 00:05:00,
2013-07-21 19:10:00,78.7,69.7,29.68,SE,137,5.0,9.4,74,0.00,,CLR,0.01,VWS V14.01,2013-07-22 00:10:00,
2013-07-21 19:15:00,78.6,70.0,29.69,SE,134,4.0,8.4,75,0.00,,CLR,0.01,VWS V14.01,2013-07-22 00:15:00,
2013-07-21 19:20:00,78.5,69.9,29.69,ESE,122,3.0,7.3,75,0.00,,CLR,0.01,VWS V14.01,2013-07-22 00:20:00,
2013-07-21 19:30:00,78.2,70.4,29.69,ESE,111,2.0,8.4,77,0.00,,CLR,0.01,VWS V14.01,2013-07-22 00:30:00,
2013-07-21 19:35:00,78.0,70.2,29.69,ESE,117,2.0,6.3,77,0.00,,CLR,0.01,VWS V14.01,2013-07-22 00:35:00,
2013-07-21 19:45:00,77.6,70.2,29.70,ESE,113,0.0,4.2,78,0.00,,SCT060,0.01,VWS V14.01,2013-07-22 00:45:00,
2013-07-21 19:50:00,77.6,70.2,29.70,ESE,117,0.0,2.1,78,0.00,,SCT060,0.01,VWS V14.01,2013-07-22 00:50:00,
2013-07-21 19:55:00,77.6,70.6,29.71,ESE,117,0.0,2.1,79,0.00,,SCT060,0.01,VWS V14.01,2013-07-22 00:55:00,
2013-07-21 20:00:00,77.6,71.3,29.71,ESE,119,1.0,2.1,81,0.01,,SCT060,0.02,VWS V14.01,2013-07-22 01:00:00,
2013-07-21 20:10:00,76.6,71.4,29.71,ESE,118,1.0,2.1,84,0.02,,BKN080,0.03,VWS V14.01,2013-07-22 01:10:00,
2013-07-21 20:20:00,75.6,71.5,29.72,WNW,302,2.0,3.1,87,0.02,,BKN080,0.03,VWS V14.01,2013-07-22 01:20:00,
2013-07-21 20:25:00,75.4,71.9,29.71,East,101,1.0,2.1,89,0.02,,BKN080,0.03,VWS V14.01,2013-07-22 01:25:00,
2013-07-21 20:35:00,74.8,71.0,29.71,NNW,327,0.0,4.2,88,0.02,,BKN080,0.03,VWS V14.01,2013-07-22 01:35:00,
2013-07-21 20:40:00,74.6,70.8,29.71,NNW,329,0.0,2.1,88,0.02,,SCT080,0.03,VWS V14.01,2013-07-22 01:40:00,
2013-07-21 20:45:00,74.4,70.6,29.71,NNW,329,1.0,2.1,88,0.02,,SCT080,0.03,VWS V14.01,2013-07-22 01:45:00,
2013-07-21 20:50:00,74.1,70.3,29.70,NE,40,2.0,3.1,88,0.02,,SCT080,0.03,VWS V14.01,2013-07-22 01:50:00,
2013-07-21 21:00:00,73.5,70.1,29.70,NE,40,1.0,3.1,89,0.02,,SCT080,0.03,VWS V14.01,2013-07-22 02:00:00,
2013-07-21 21:10:00,72.8,69.7,29.70,NE,40,0.0,1.0,90,0.00,,CLR,0.03,VWS V14.01,2013-07-22 02:10:00,
2013-07-21 21:15:00,72.5,69.4,29.70,NE,40,0.0,1.0,90,0.00,,CLR,0.03,VWS V14.01,2013-07-22 02:15:00,
2013-07-21 21:25:00,71.9,69.1,29.70,NE,40,0.0,1.0,91,0.00,,CLR,0.03,VWS V14.01,2013-07-22 02:25:00,
2013-07-21 21:30:00,71.6,68.8,29.70,NE,40,0.0,1.0,91,0.00,,CLR,0.03,VWS V14.01,2013-07-22 02:30:00,
2013-07-21 21:35:00,71.3,68.5,29.70,NE,40,0.0,1.0,91,0.00,,CLR,0.03,VWS V14.01,2013-07-22 02:35:00,
2013-07-21 21:40:00,71.1,68.7,29.71,NE,40,0.0,1.0,92,0.00,,CLR,0.03,VWS V14.01,2013-07-22 02:40:00,
2013-07-21 21:50:00,70.6,68.2,29.71,NE,40,0.0,1.0,92,0.00,,CLR,0.03,VWS V14.01,2013-07-22 02:50:00,
2013-07-21 21:55:00,70.4,68.0,29.71,NE,40,1.0,1.0,92,0.00,,CLR,0.03,VWS V14.01,2013-07-22 02:55:00,
2013-07-21 22:00:00,70.2,67.8,29.71,NE,40,0.0,2.1,92,0.00,,CLR,0.03,VWS V14.01,2013-07-22 03:00:00,
2013-07-21 22:05:00,70.1,68.0,29.71,NE,47,0.0,3.1,93,0.00,,CLR,0.03,VWS V14.01,2013-07-22 03:05:00,
2013-07-21 22:10:00,70.0,67.9,29.70,NE,48,0.0,2.1,93,0.00,,CLR,0.03,VWS V14.01,2013-07-22 03:10:00,
2013-07-21 22:15:00,69.8,67.7,29.70,NE,48,1.0,3.1,93,0.00,,CLR,0.03,VWS V14.01,2013-07-22 03:15:00,
2013-07-21 22:20:00,69.7,67.6,29.70,ENE,64,2.0,3.1,93,0.00,,CLR,0.03,VWS V14.01,2013-07-22 03:20:00,
2013-07-21 22:25:00,69.5,67.4,29.70,ENE,69,1.0,2.1,93,0.00,,CLR,0.03,VWS V14.01,2013-07-22 03:25:00,
2013-07-21 22:35:00,69.5,67.4,29.70,ESE,103,3.0,4.2,93,0.00,,CLR,0.03,VWS V14.01,2013-07-22 03:35:00,
2013-07-21 22:40:00,69.6,67.8,29.70,ESE,114,2.0,4.2,94,0.00,,CLR,0.03,VWS V14.01,2013-07-22 03:40:00,
2013-07-21 22:50:00,69.9,67.8,29.69,ESE,117,3.0,7.3,93,0.00,,CLR,0.03,VWS V14.01,2013-07-22 03:50:00,
2013-07-21 22:55:00,69.9,67.8,29.69,SE,133,3.0,8.4,93,0.00,,CLR,0.03,VWS V14.01,2013-07-22 03:55:00,
2013-07-21 23:00:00,70.1,68.3,29.69,SE,139,4.0,6.3,94,0.00,,CLR,0.03,VWS V14.01,2013-07-22 04:00:00,
2013-07-21 23:05:00,70.2,68.4,29.68,ESE,121,3.0,7.3,94,0.00,,CLR,0.03,VWS V14.01,2013-07-22 04:05:00,
2013-07-21 23:10:00,70.3,68.2,29.69,SE,138,5.0,7.3,93,0.00,,CLR,0.03,VWS V14.01,2013-07-22 04:10:00,
2013-07-21 23:15:00,70.4,68.3,29.69,SE,129,3.0,7.3,93,0.00,,CLR,0.03,VWS V14.01,2013-07-22 04:15:00,
2013-07-21 23:25:00,70.5,68.4,29.68,SE,138,3.0,8.4,93,0.00,,CLR,0.03,VWS V14.01,2013-07-22 04:25:00,
2013-07-21 23:30:00,70.5,68.4,29.68,SSE,152,3.0,7.3,93,0.00,,CLR,0.03,VWS V14.01,2013-07-22 04:30:00,
2013-07-21 23:35:00,70.6,68.8,29.69,SE,146,2.0,7.3,94,0.00,,CLR,0.03,VWS V14.01,2013-07-22 04:35:00,
2013-07-21 23:40:00,70.7,68.9,29.69,SSE,158,3.0,7.3,94,0.00,,CLR,0.03,VWS V14.01,2013-07-22 04:40:00,
2013-07-21 23:45:00,70.8,69.0,29.68,SE,146,2.0,8.4,94,0.00,,CLR,0.03,VWS V14.01,2013-07-22 04:45:00,
2013-07-21 23:50:00,70.9,69.1,29.68,SSE,162,4.0,9.4,94,0.00,,CLR,0.03,VWS V14.01,2013-07-22 04:50:00,
2013-07-21 23:55:00,71.1,69.3,29.69,SE,142,3.0,8.4,94,0.00,,CLR,0.03,VWS V14.01,2013-07-22 04:55:00,